Weather Roundup
Issued by NWS Chicago, IL

Home | Current Version | Previous Version | Graphics & Text | Print | Product List | Glossary On
Versions: 1 2 3 4 5 6 7 8 9 10 11 12 13 14 15 16 17 18 19 20 21 22 23 24 25 26 27 28 29 30 31 32 33 34 35 36 37 38 39 40 41 42 43 44 45 46 47 48 49 50
000
NZUS59 KLOT 280422
HRRLOT

CHICAGO AREA WEATHER ROUNDUP
NATIONAL WEATHER SERVICE CHICAGO/ROMEOVILLE IL
1100 PM CDT WED MAY 27 2015

NOTE: "FAIR" INDICATES FEW OR NO CLOUDS BELOW 12,000 FEET WITH NO
SIGNIFICANT WEATHER AND/OR OBSTRUCTIONS TO VISIBILITY.

* THESE STATIONS ARE NOT UNDER NWS QUALITY CONTROL. THEY ALSO MAY NOT
  REPORT WEATHER SUCH AS PRECIPITATION OR FOG.

ILZ005-006-012>014-019>023-280500-
NORTHEAST ILLINOIS

CITY           SKY/WX    TMP DP  RH WIND       PRES   REMARKS
OHARE          CLEAR     62  54  74 SE5       30.12R
MIDWAY         CLEAR     65  55  70 SE7       30.12R
AURORA         CLEAR     61  55  81 CALM      30.13R
LANSING*       CLEAR     59  54  82 CALM      30.13S
JOLIET*        CLEAR     59  58  96 CALM      30.13R
WAUKEGAN       CLEAR     59  55  87 S3        30.11R
DUPAGE AIRPORT CLEAR     60  56  86 CALM      30.12R
WHEELING       CLEAR     60  54  80 CALM      30.13R
KANKAKEE*      CLEAR     64  55  72 CALM      30.13S
MORRIS*        CLEAR     65  56  74 CALM      30.11S
LEWIS AIRPORT* CLEAR     62  55  77 S5        30.13R
NORTHERLY IS     N/A     58  53  84 SE3         N/A
$$

WIZ051-052-058>065-066-070>072-280500-
SOUTHEAST WISCONSIN

CITY           SKY/WX    TMP DP  RH WIND       PRES   REMARKS
MILWAUKEE      PTCLDY    62  56  80 S3        30.10R
KENOSHA*       CLEAR     61  55  81 S7        30.11R
RACINE*        CLEAR     59  53  80 S5        30.12R
BURLINGTON     CLEAR     56  55  97 CALM      30.11R
WAUKESHA       CLEAR     63  54  72 SW6       30.12R
WEST BEND      PTCLDY    63  55  77 SW3       30.09R
$$

INZ001>003-010>013-019-020-280500-
NORTHWEST INDIANA

CITY           SKY/WX    TMP DP  RH WIND       PRES   REMARKS
GARY*          CLEAR     57  56  97 CALM      30.14S
MICHIGAN CITY* NOT AVBL
RENSSELAER*    NOT AVBL
VALPARAISO     CLEAR     58  55  90 CALM      30.14R
$$

LMZ740>746-280500-
SOUTHERN LAKE MICHIGAN

STATION/POSITION TIME  SKY/WX   TEMP WIND        PRES    VSBY
                                AIR  DIR/SP/G
                 (UTC)          (F)  (DEG/KT/KT) (MB)    (MI)
HARRISON CRIB    0400            59  180/  9/ 10   N/A
BURNHAM HARBOR   0400            57  160/  4/  4   N/A
CALUMET HARBOR   0306            60  100/  3/  4   N/A
BURNS HARBOR     0300            62   80/  6/  7 1020.7R
MICHIGAN CITY    0300            59   40/  4/  4   N/A
$$

ABBREVIATIONS USED IN REMARKS
   TC - TEMPERATURE IN CELSIUS
  WCI - WIND CHILL INDEX
   HX - HEAT INDEX
  VSB - VISIBILITY
$$



USA.gov is the U.S. government's official web portal to all federal, state and local government web resources and services.